Flight Track Log - Related Links

Times and Time Zones

All times are in EST time to prevent confusion due to time zone crossing. See the SWA1086 flight status page for this flight to view local times or setup timezone preferences in your user account.


Time Position Orientation Groundspeed Altitude Reporting Facility
EST Latitude Longitude Course Direction KTS MPH feet Rate Location/Type
Sat 10:04:55 AM 47.4197 -122.3083 181° South 170 196 1,600  Level Seattle Center
Sat 10:05:55 AM 47.3592 -122.3094 181° South 214 246 4,200 2,975 Climbing Seattle Center
Sat 10:06:56 AM 47.2933 -122.3067 178° South 234 269 7,600 3,273 Climbing Seattle Center
Sat 10:07:56 AM 47.2242 -122.2731 162° South 260 299 10,800 2,975 Climbing Seattle Center
Sat 10:08:57 AM 47.1383 -122.2381 164° South 299 344 13,600 2,430 Climbing Seattle Center
Sat 10:09:57 AM 47.0514 -122.2308 177° South 317 365 15,700 2,132 Climbing Seattle Center
Sat 10:10:58 AM 46.9650 -122.2222 176° South 335 386 17,900 1,967 Climbing Seattle Center
Sat 10:11:59 AM 46.8644 -122.2125 176° South 353 406 19,700 1,884 Climbing Seattle Center
Sat 10:12:59 AM 46.7631 -122.2003 175° South 365 420 21,700 1,736 Climbing Seattle Center
Sat 10:14:00 AM 46.6575 -122.1872 175° South 380 437 23,200 1,686 Climbing Seattle Center
Sat 10:15:00 AM 46.5492 -122.1750 176° South 389 448 25,100 1,537 Climbing Seattle Center
Sat 10:16:01 AM 46.4375 -122.1647 176° South 402 463 26,300 1,289 Climbing Seattle Center
Sat 10:17:01 AM 46.3244 -122.1508 175° South 409 471 27,700 1,388 Climbing Seattle Center
Sat 10:18:02 AM 46.2094 -122.1383 176° South 420 483 29,100 1,438 Climbing Seattle Center
Sat 10:19:02 AM 46.0936 -122.1258 176° South 419 482 30,600 1,240 Climbing Seattle Center
Sat 10:20:03 AM 45.9772 -122.1133 176° South 419 482 31,600 992 Climbing Seattle Center
Sat 10:21:03 AM 45.8592 -122.1008 176° South 427 491 32,600 1,091 Climbing Seattle Center
Sat 10:22:04 AM 45.7394 -122.0886 176° South 430 495 33,800 942 Climbing Seattle Center
Sat 10:23:04 AM 45.6186 -122.0750 175° South 434 499 34,500 595 Climbing Seattle Center
Sat 10:24:05 AM 45.4947 -122.0625 176° South 443 510 35,000 197 Climbing Seattle Center
Sat 10:25:06 AM 45.3694 -122.0467 175° South 450 518 34,900 -248 Descending Seattle Center
Sat 10:26:06 AM 45.2475 -122.0358 176° South 441 507 34,500 -744 Descending Seattle Center
Sat 10:27:07 AM 45.0958 -122.0200 176° South 453 521 33,400 -744 Descending Seattle Center
Sat 10:28:07 AM 44.9717 -122.0053 175° South 449 517 33,000 -198 Descending Seattle Center
Sat 10:29:08 AM 44.8658 -121.9944 176° South 441 507 33,000  Level Seattle Center
Sat 10:30:08 AM 44.7453 -121.9819 176° South 436 502 33,000 248 Level Seattle Center
Sat 10:31:09 AM 44.6094 -121.9686 176° South 445 512 33,500 738 Climbing Seattle Center
Sat 10:32:10 AM 44.4811 -121.9553 176° South 455 524 34,500 744 Climbing Seattle Center
Sat 10:33:10 AM 44.3503 -121.9417 176° South 464 534 35,000 248 Climbing Seattle Center
Sat 10:34:11 AM 44.2197 -121.9272 175° South 468 539 35,000  Level Seattle Center
Sat 10:35:11 AM 44.0897 -121.9142 176° South 467 537 35,000  Level Seattle Center
Sat 10:36:12 AM 43.9617 -121.9019 176° South 464 534 35,000  Level Seattle Center
Sat 10:37:13 AM 43.8353 -121.8894 176° South 456 525 35,000  Level Seattle Center
Sat 10:38:13 AM 43.7067 -121.8789 177° South 459 528 35,000  Level Seattle Center
Sat 10:39:14 AM 43.5694 -121.8636 175° South 455 524 35,000  Level Seattle Center
Sat 10:40:14 AM 43.4417 -121.8508 176° South 459 528 35,000  Level Seattle Center
Sat 10:41:15 AM 43.3144 -121.8386 176° South 459 528 35,000  Level Seattle Center
Sat 10:42:16 AM 43.1869 -121.8250 176° South 460 529 35,000  Level Seattle Center
Sat 10:43:16 AM 43.0589 -121.8139 176° South 460 529 35,000  Level Seattle Center
Sat 10:44:17 AM 42.9306 -121.8028 176° South 462 532 35,000  Level Seattle Center
Sat 10:45:18 AM 42.8017 -121.7886 175° South 464 534 35,000  Level Seattle Center
Sat 10:46:18 AM 42.6722 -121.7758 176° South 465 535 35,000  Level Seattle Center
Sat 10:47:19 AM 42.5417 -121.7631 176° South 470 541 35,000  Level Seattle Center
Sat 10:48:20 AM 42.4111 -121.7522 176° South 470 541 35,000  Level Seattle Center
Sat 10:49:20 AM 42.2786 -121.7397 176° South 473 544 35,000  Level Seattle Center
Sat 10:50:21 AM 42.1467 -121.7272 176° South 471 542 35,000  Level Seattle Center
Sat 10:51:22 AM 42.0133 -121.7269 180° South 468 539 35,000  Level Seattle Center
Sat 10:52:22 AM 41.8806 -121.7272 180° South 469 540 35,000  Level Seattle Center
Sat 10:53:23 AM 41.7483 -121.7267 180° South 471 542 35,000  Level Seattle Center
Sat 10:54:24 AM 41.6178 -121.7267 180° South 467 537 35,000  Level Seattle Center
Sat 10:55:24 AM 41.4875 -121.7267 180° South 468 539 35,000  Level Seattle Center
Sat 10:56:25 AM 41.3558 -121.7250 179° South 472 543 35,000  Level Seattle Center
Sat 10:57:26 AM 41.2242 -121.7242 180° South 473 544 35,000  Level Seattle Center
Sat 10:58:26 AM 41.0928 -121.7236 180° South 472 543 35,000  Level Seattle Center
Sat 10:59:27 AM 40.9614 -121.7236 180° South 472 543 35,000  Level Seattle Center
Sat 11:00:27 AM 40.8106 -121.7208 179° South 477 549 35,000  Level Seattle Center
Sat 11:01:28 AM 40.6789 -121.7194 180° South 474 545 35,000 -1,279 Level Seattle Center
Sat 11:02:29 AM 40.5481 -121.7203 180° South 470 541 32,400 -2,777 Descending Seattle Center
Sat 11:03:29 AM 40.4144 -121.7172 179° South 478 550 29,400 -2,678 Descending Seattle Center
Sat 11:04:30 AM 40.2828 -121.7058 176° South 473 544 27,000 -2,331 Descending Seattle Center
Sat 11:05:30 AM 40.1558 -121.6950 176° South 458 527 24,700 -2,301 Descending Seattle Center
Sat 11:06:43 AM 40.0117 -121.6833 176° South 428 493 21,900 -2,194 Descending Oakland Center
Sat 11:07:44 AM 39.8989 -121.6736 176° South 408 470 19,800 -2,016 Descending Oakland Center
Sat 11:08:45 AM 39.7914 -121.6658 177° South 389 448 17,800 -2,016 Descending Oakland Center
Sat 11:09:46 AM 39.6878 -121.6569 176° South 375 432 15,700 -2,115 Descending Oakland Center
Sat 11:10:47 AM 39.5872 -121.6475 176° South 364 419 13,500 -1,820 Descending Oakland Center
Sat 11:11:48 AM 39.4825 -121.6392 176° South 345 397 12,000 -738 Descending Oakland Center
Sat 11:12:49 AM 39.3894 -121.6494 185° South 336 387 12,000 -492 Level Oakland Center
Sat 11:13:50 AM 39.2981 -121.6586 184° South 329 379 11,000 -1,024 Descending Oakland Center
Sat 11:14:52 AM 39.2122 -121.6669 184° South 312 359 9,900 -1,171 Descending Oakland Center
Sat 11:15:53 AM 39.1342 -121.6769 186° South 287 330 8,600 -1,426 Descending Oakland Center
Sat 11:16:54 AM 39.0578 -121.6858 185° South 278 320 7,000 -1,525 Descending Oakland Center
Sat 11:17:55 AM 38.9808 -121.6953 185° South 278 320 5,500 -984 Descending Oakland Center
Sat 11:18:56 AM 38.9044 -121.7031 185° South 276 318 5,000 -541 Descending Oakland Center
Sat 11:19:57 AM 38.8353 -121.7039 181° South 253 291 4,400 -927 Descending Oakland Center
Sat 11:20:59 AM 38.7656 -121.6967 175° South 250 288 3,100 -683 Descending Oakland Center
Sat 11:22:00 AM 38.6864 -121.6917 177° South 239 275 3,000 -49 Descending Oakland Center
Sat 11:23:01 AM 38.6236 -121.6853 175° South 229 264 3,000 -98 Level Oakland Center
Sat 11:24:02 AM 38.5864 -121.6492 143° Southeast 206 237 2,800 -738 Descending Oakland Center
Sat 11:25:03 AM 38.6089 -121.6019 59° Northeast 183 211 1,500 -1,024 Descending Oakland Center
Sat 11:26:05 AM 38.6486 -121.6019 360° North 148 170 700 -585 Descending Oakland Center
Sat 11:27:06 AM 38.6939 -121.6003 North 146 168 300 -393 Descending Oakland Center

Login

Don't have an account? Register now (free) for customized features, flight alerts, and more!